This demonstration page uses our WeatherBlox Daily Observations layout. Learn more.

Left ArrowRight Arrow

Hourly Observations for June 6, 2020

Temp ( °F °C ) Dew Point ( °F °C ) Humidity (%) Winds ( mph kmh ) Pressure ( in mb ) Visibility ( mi km ) Precip ( " mm )
12:53 am 00:53 Clear 83 28.3 58 14.4 43 43 SSE 15 24 29.78 1009 10 16 0.00 0.00
1:53 am 01:53 Clear 81 27.2 59 15 47 47 SSE 13 20 29.78 1008 10 16 0.00 0.00
2:53 am 02:53 Clear 79 26.1 60 15.6 52 52 SSE 12 19 29.77 1008 10 16 0.00 0.00
3:53 am 03:53 Clear 77 25 61 16.1 58 58 SE 13 20 29.76 1008 10 16 0.00 0.00
4:53 am 04:53 Clear 75 23.9 61 16.1 62 62 SE 13 20 29.76 1008 10 16 0.00 0.00
5:53 am 05:53 Clear 74 23.3 61 16.1 64 64 SE 13 20 29.77 1008 10 16 0.00 0.00
6:53 am 06:53 Sunny 73 22.8 62 16.7 69 69 SE 13 20 29.78 1008 10 16 0.00 0.00
7:53 am 07:53 Sunny 74 23.3 62 16.7 67 67 SSE 10 17 29.81 1010 10 16 0.00 0.00
8:53 am 08:53 Sunny 77 25 63 17.2 62 62 SSE 16 26 29.82 1010 10 16 0.00 0.00
9:53 am 09:53 Sunny 81 27.2 62 16.7 53 53 SSE 18 30 29.83 1010 10 16 0.00 0.00
10:53 am 10:53 Sunny 85 29.4 61 16.1 45 45 SE 20 31 29.82 1010 10 16 0.00 0.00
11:53 am 11:53 Sunny 88 31.1 60 15.6 39 39 SSE 23 37 29.80 1009 10 16 0.00 0.00
12:53 pm 12:53 Sunny 92 33.3 57 13.9 31 31 S 21 33 29.78 1009 10 16 0.00 0.00
1:53 pm 13:53 Sunny 94 34.4 58 14.4 30 30 SE 14 22 29.76 1008 10 16 0.00 0.00
2:53 pm 14:53 Sunny 95 35 56 13.3 27 27 S 21 33 29.73 1007 10 16 0.00 0.00
3:53 pm 15:53 Sunny 97 36.1 53 11.7 23 23 SSE 17 28 29.70 1006 10 16 0.00 0.00
4:53 pm 16:53 Sunny 98 36.7 50 10 20 20 SE 20 31 29.67 1005 10 16 0.00 0.00
5:53 pm 17:53 Sunny 97 36.1 50 10 20 20 SE 18 30 29.65 1004 10 16 0.00 0.00
6:53 pm 18:53 Sunny 96 35.6 50 10 21 21 SE 23 37 29.63 1004 10 16 0.00 0.00
7:53 pm 19:53 Sunny 93 33.9 50 10 23 23 SE 24 39 29.63 1003 10 16 0.00 0.00
8:53 pm 20:53 Sunny 89 31.7 47 8.3 23 23 SSE 18 30 29.65 1004 10 16 0.00 0.00
9:53 pm 21:53 Clear 87 30.6 48 8.9 26 26 SE 20 31 29.67 1005 10 16 0.00 0.00
10:53 pm 22:53 Clear 85 29.4 49 9.4 29 29 SE 17 28 29.70 1006 10 16 0.00 0.00
11:53 pm 23:53 Clear 83 28.3 51 10.6 33 33 SE 16 26 29.71 1006 10 16 0.00 0.00

Powered by AerisWeather